Location: ???????
(55.3754°N, 39.3545°E)
Time: 09:59:18
(UTC+00:00)

Cosmos 1606 Rocket - Pass Details

Date: 14 April 2026
Orbit: 595 x 625 km, 82.5° (Epoch: 19 May)

Event Time Altitude Azimuth Distance (km) Brightness Sun altitude
Exits shadow 23:37:15 45° 219° (SW) 863 3.8 -19.1°
Maximum altitude 23:38:29 67° 284° (WNW) 682 3.6 -19.0°
Drops below altitude 10° 23:42:55 10° 8° (N) 2,006 7.1 -18.7°
Sets 23:45:11 0° 11° (N) 2,914 8.2 -18.5°
